Muncie, IN

2:23 AM EST on December 18, 2017 (GMT -0500)
Delaware County-Johnson

Weather History for KMIE - May, 2013

Change the Weather History Date:

Monday, May 20, 2013

  Actual Average Record
Temperature  
Mean Temperature 82 °F 63 °F  
Max Temperature 90 °F 73 °F 93 °F (1977)
Min Temperature 74 °F 53 °F 37 °F (2002)
Degree Days  
Heating Degree Days 0 4  
Month to date heating degree days 55 131  
Since 1 July heating degree days 5338 5723  
Cooling Degree Days 17 3  
Month to date cooling degree days 92 31  
Year to date cooling degree days 105 46  
Growing Degree Days 31 (Base 50)    
Moisture  
Dew Point 66 °F    
Average Humidity 64    
Maximum Humidity 84    
Minimum Humidity 43    
Precipitation  
Precipitation 0.00 in 0.15 in 0.50 in (1989)
Month to date precipitation 0.95 2.72  
Year to date precipitation 13.62 13.88  
Sea Level Pressure  
Sea Level Pressure 29.90 in    
Wind  
Wind Speed 10 mph (SSW)    
Max Wind Speed 18 mph    
Max Gust Speed 26 mph    
Visibility 8 miles    
Events      
T = Trace of Precipitation, MM = Missing Value Source: NWS Daily Summary

Daily Weather History Graph

Daily Weather History Graph

Search for Another Location

Airport or City:

Trip Planner

Search our weather history database for the weather conditions in past years. The results will help you decide how hot, cold, wet, or windy it might be!

Date:

Astronomy

May. 20, 2013 Rise Set
Actual Time 6:21 AM EDT 8:55 PM EDT
Civil Twilight 5:49 AM EDT 9:26 PM EDT
Nautical Twilight 5:11 AM EDT 10:06 PM EDT
Astronomical Twilight 4:27 AM EDT 10:50 PM EDT
Moon 4:01 PM EDT (5/20) 3:16 AM EDT (5/20)
Length of Visible Light 15h 36m
Length of Day
14h 34m
Waxing Gibbous, 75% of the Moon is Illuminated
May 20
Waxing Gibbous
May 25
Full
May 31
Last Quarter
Jun 8
New
Jun 16
First Quarter

Hourly Weather History & Observations

Time (EDT) Temp. Heat Index Dew Point Humidity Pressure Visibility Wind Dir Wind Speed Gust Speed Precip Events Conditions
12:53 AM 77.0 °F - 63.0 °F 62% 29.88 in 10.0 mi South 6.9 mph - N/A   Scattered Clouds
1:53 AM 75.9 °F - 64.0 °F 67% 29.87 in 10.0 mi South 6.9 mph - N/A   Clear
2:53 AM 75.9 °F - 64.9 °F 69% 29.88 in 10.0 mi South 6.9 mph - N/A   Mostly Cloudy
4:53 AM 75.0 °F - 68.0 °F 79% 29.88 in 7.0 mi South 5.8 mph - N/A   Clear
5:53 AM 73.9 °F - 68.0 °F 82% 29.86 in 5.0 mi South 6.9 mph - N/A   Haze
6:22 AM 73.4 °F - 68.0 °F 83% 29.91 in 5.0 mi South 8.1 mph - N/A   Haze
6:53 AM 75.0 °F - 68.0 °F 79% 29.88 in 4.0 mi SSW 8.1 mph 21.9 mph N/A   Haze
6:56 AM 75.2 °F - 68.0 °F 78% 29.93 in 4.0 mi SSW 8.1 mph 21.9 mph N/A   Haze
7:06 AM 75.2 °F - 68.0 °F 78% 29.93 in 4.0 mi SSW 8.1 mph 19.6 mph N/A   Haze
7:18 AM 75.2 °F - 68.0 °F 78% 29.94 in 5.0 mi SSW 8.1 mph - N/A   Haze
7:53 AM 75.9 °F - 68.0 °F 76% 29.91 in 5.0 mi SSW 8.1 mph - N/A   Haze
8:18 AM 75.2 °F - 68.0 °F 78% 29.95 in 5.0 mi SSW 5.8 mph - N/A   Haze
8:53 AM 75.9 °F - 68.0 °F 76% 29.93 in 5.0 mi SSW 9.2 mph 16.1 mph N/A   Haze
9:25 AM 78.8 °F - 68.0 °F 69% 29.96 in 6.0 mi SSW 6.9 mph 16.1 mph N/A   Haze
9:48 AM 77.0 °F - 66.2 °F 69% 29.95 in 6.0 mi SSW 9.2 mph - N/A   Haze
9:53 AM 78.1 °F - 68.0 °F 71% 29.91 in 6.0 mi SSW 10.4 mph 17.3 mph N/A   Haze
10:19 AM 78.8 °F - 68.0 °F 69% 29.94 in 7.0 mi SSW 11.5 mph 19.6 mph N/A   Scattered Clouds
10:44 AM 80.6 °F 83.2 °F 68.0 °F 65% 29.94 in 7.0 mi SW 9.2 mph 17.3 mph N/A   Mostly Cloudy
10:53 AM 79.0 °F - 68.0 °F 69% 29.90 in 7.0 mi SSW 10.4 mph 19.6 mph N/A   Mostly Cloudy
11:53 AM 80.1 °F 82.3 °F 66.9 °F 64% 29.92 in 6.0 mi SW 11.5 mph - N/A   Haze
12:26 PM 80.6 °F 82.7 °F 66.2 °F 61% 29.96 in 7.0 mi SSW 9.2 mph 18.4 mph N/A   Overcast
12:33 PM 82.4 °F 85.4 °F 68.0 °F 62% 29.96 in 7.0 mi SSW 9.2 mph - N/A   Overcast
12:44 PM 82.4 °F 85.4 °F 68.0 °F 62% 29.95 in 8.0 mi SSW 9.2 mph 19.6 mph N/A   Mostly Cloudy
12:51 PM 82.4 °F 84.6 °F 66.2 °F 58% 29.94 in 8.0 mi South 9.2 mph 20.7 mph N/A   Mostly Cloudy
12:53 PM 82.0 °F 84.5 °F 66.9 °F 60% 29.91 in 8.0 mi South 10.4 mph 20.7 mph N/A   Mostly Cloudy
1:12 PM 84.2 °F 86.6 °F 66.2 °F 55% 29.93 in 9.0 mi South 12.7 mph 18.4 mph N/A   Scattered Clouds
1:53 PM 84.9 °F 87.1 °F 66.0 °F 53% 29.88 in 10.0 mi SSW 8.1 mph 19.6 mph N/A   Scattered Clouds
2:53 PM 87.1 °F 88.3 °F 64.0 °F 46% 29.86 in 10.0 mi SSW 15.0 mph 23.0 mph N/A   Scattered Clouds
3:53 PM 89.1 °F 91.0 °F 64.9 °F 45% 29.85 in 10.0 mi SW 12.7 mph 21.9 mph N/A   Partly Cloudy
4:53 PM 87.1 °F 87.8 °F 63.0 °F 44% 29.86 in 10.0 mi WSW 15.0 mph 23.0 mph N/A   Mostly Cloudy
5:53 PM 86.0 °F 86.8 °F 63.0 °F 46% 29.85 in 10.0 mi SW 17.3 mph 25.3 mph N/A   Clear
6:53 PM 86.0 °F 87.3 °F 64.0 °F 48% 29.83 in 10.0 mi SSW 17.3 mph 24.2 mph N/A   Clear
7:53 PM 84.9 °F 86.1 °F 64.0 °F 49% 29.83 in 10.0 mi SSW 15.0 mph 23.0 mph N/A   Clear
8:53 PM 82.9 °F 84.4 °F 64.0 °F 53% 29.82 in 10.0 mi SSW 8.1 mph - N/A   Clear
10:53 PM 79.0 °F - 64.9 °F 62% 29.84 in 10.0 mi South 10.4 mph - N/A   Clear
11:53 PM 79.0 °F - 64.9 °F 62% 29.83 in 10.0 mi SSW 9.2 mph 16.1 mph N/A   Clear